www.pogodaiklimat.ru

Погода и климат >> Архив погоды >> Индонезия >> Нангапинох


ПОГОДА в Нангапинохе

  • Прогноз погоды в Нангапинохе
  • Монитор погоды в Нангапинохе

АРХИВ ПОГОДЫ в Нангапинохе

Время (UTC), дата Ветер
(напр.,м/с)
 
Видим.   Явления Облачность Т
(С)
Тd
(С)
f
(%)
Тe
(С)
Тes
(С)
Комфортность P
(гПа)
Po
(гПа)
Тmin
(С)
Tmax
(С)
R
(мм)
R24
(мм)
S
(см)
00 19.08 штиль 0 2000 м дымка 10/6
[Cb calv As op]
+24.0 +23.4 96 +32 +32 очень
душно
1012.9 1008.3 +23.7 22
03 19.08 ЮВ 2 4000 м мгла 10/6
[Cb calv As op]
+28.4 +23.9 77 +39 +41 очень
душно
1013.1 1008.4
06 19.08 ЮВ 2 7000 м 9/6 300 м
[Cb calv As op Ci fib]
+31.6 +22.3 58 +41 +45 опасность
перегрева
1009.7 1005.1
09 19.08 ЮВ 2 8000 м слаб. дождь 9/6 300 м
[Cb calv As op Ci fib]
+31.8 +22.8 59 +42 +43 опасность
перегрева
1007.8 1003.1 0.0
12 19.08 В 2 7000 м {дождь} 8/4 330 м
[Cu med, cong As trans Ci fib]
+27.4 +24.5 84 +39 +39 очень
душно
1010.2 1005.5 +32.0 0.0
15 19.08 Ю 1 5000 м мгла 8/5 300 м
[Cu Sc As op Ci fib]
+26.4 +23.4 84 +36 +36 очень
душно
1012.2 1007.5
00 20.08 СВ 1 2000 м мгла 10/6 300 м
[Cu Sc As op]
+25.0 +23.6 92 +34 +34 очень
душно
1013.3 1008.7 +24.1
03 20.08 В 1 4000 м мгла 10/6
[Cb calv As op]
+27.0 +23.1 79 +36 +38 очень
душно
1013.8 1009.1
06 20.08 В 1 5000 м дым 9/6 300 м
[Cb calv As op Ci fib]
+29.0 +23.8 74 +40 +45 очень
душно
1011.2 1006.5
09 20.08 штиль 0 8000 м 9/6 300 м
[Cb calv As op Ci fib]
+30.2 +22.6 64 +40 +41 очень
душно
1008.9 1004.2
12 20.08 штиль 0 5000 м дым 10/6 300 м
[Cu med, cong As op Ci fib]
+27.3 +23.0 77 +36 +36 очень
душно
1009.9 1005.2 +29.8
15 20.08 В 2 3000 м дым 8/6 300 м
[Cu Sc As op Ci fib]
+25.5 +23.0 86 +34 +34 очень
душно
1010.7 1006.0
00 21.08 СВ 2 100 м туман 10/8 300 м
[Sc As op]
+22.6 +22.3 98 +30 +31 очень
душно
1010.8 1006.2 +22.4
03 21.08 штиль 0 6000 м {туман} 8/6 300 м
[Cu med, cong As trans Ci fib]
+30.2 +22.6 64 +40 +47 очень
душно
1010.3 1005.6
06 21.08 В 2 6000 м {туман} 8/6 300 м
[Cu med, cong As trans Ci fib]
+34.0 +21.7 49 +42 +48 опасность
перегрева
1007.5 1002.8
09 21.08 ЮВ 2 8000 м 6/4 300 м
[Cu med, cong As trans Ci fib]
+34.6 +20.0 42 +40 +42 очень
душно
1006.9 1002.2
12 21.08 Ю 2 6000 м 6/5 300 м
[Cu med, cong As op Ci fib]
+30.2 +21.7 60 +38 +38 очень
душно
1008.7 1004.1 +35.6
15 21.08 штиль 0 3000 м мгла 8/6 300 м
[Cu med, cong As op Ci fib]
+26.5 +23.4 83 +36 +36 очень
душно
1010.9 1006.2
00 22.08 штиль 0 3000 м дым 6/3 300 м
[Sc As op Ci fib]
+24.0 +22.7 92 +31 +34 очень
душно
1013.1 1008.4 +22.6
03 22.08 ЮВ 1 6000 м 6/4 300 м
[Cu med, cong As trans Ci fib]
+30.2 +23.2 66 +40 +51 опасность
солнечного
удара
1012.3 1007.7
06 22.08 ЮЗ 2 7000 м 8/6 300 м
[Cb calv As op Ci fib]
+33.0 +22.3 53 +42 +48 опасность
перегрева
1009.3 1004.7
09 22.08 ЮВ 2 7000 м 9/6 300 м
[Cb calv As op Ci fib]
+33.8 +21.8 50 +42 +43 опасность
перегрева
1008.0 1003.3
12 22.08 В 1 5000 м мгла 8/6 300 м
[Cu med, cong As op Ci fib]
+30.0 +23.9 70 +41 +41 опасность
перегрева
1009.9 1005.2 +35.0
15 22.08 ЮЗ 1 3000 м мгла 8/6
[Cb calv As op Ci fib]
+27.4 +22.9 76 +36 +36 очень
душно
1011.8 1007.2
00 23.08 Ю 1 2000 м мгла 9/4 300 м
[Sc As trans Ci fib]
+23.4 +21.9 91 +32 +33 очень
душно
1013.1 1008.5 +23.1
03 23.08 ЮВ 1 3000 м дым 9/5 300 м
[Cu med, cong Ac As Ci fib]
+29.0 +21.8 65 +37 +44 очень
душно
1013.0 1008.2
06 23.08 ЮЗ 2 4000 м дым 9/6 300 м
[Cu med, cong As op Ci fib]
+32.4 +21.8 54 +41 +46 опасность
перегрева
1009.7 1005.0
09 23.08 ЮЗ 2 4000 м дым 8/5 300 м
[Cu med, cong As trans Ci fib]
+33.8 +21.1 48 +41 +43 опасность
перегрева
1008.3 1003.7
12 23.08 штиль 0 4000 м дым 9/5 300 м
[Cu med, cong As op Ci fib]
+30.4 +23.9 68 +42 +42 опасность
перегрева
1010.2 1005.6 +34.4
15 23.08 штиль 0 4000 м дым 9/4 300 м
[Cu hum As op Ci fib]
+27.8 +23.7 78 +38 +38 очень
душно
1011.5 1006.8
00 24.08 штиль 0 4000 м дым 9/4 300 м
[Sc As op Ci fib]
+25.6 +22.9 85 +34 +35 очень
душно
1012.2 1007.5 +23.4
03 24.08 Ю 1 4000 м дым 9/6 300 м
[Cu Sc Ac As]
+28.6 +23.7 75 +39 +43 очень
душно
1012.1 1007.5
06 24.08 ЮЗ 1 4000 м дым 10/6 270 м
[Cu Sc As op]
+29.9 +23.3 68 +40 +42 очень
душно
1009.8 1005.1
09 24.08 штиль 0 4000 м дождь 10/10 300 м
[]
+29.8 +24.0 71 +41 +41 опасность
перегрева
1008.5 1003.9
12 24.08 штиль 0 4000 м 10/6 300 м
[Cu Sc As op]
+27.9 +25.2 85 +40 +40 очень
душно
1010.1 1005.4 +31.0
15 24.08 штиль 0 3000 м дым 10/6 300 м
[Cb calv As op]
+26.5 +25.2 93 +38 +38 очень
душно
1011.2 1006.5
00 25.08 штиль 0 2000 м слаб. дождь 10/6
[Cb cap As op]
+25.2 +24.2 94 +35 +35 очень
душно
1012.1 1007.5 +25.2 0.1 0.1
03 25.08 ЮВ 4 7000 м {дождь} 10/6
[Cb cap As op]
+28.0 +23.6 77 +38 +39 очень
душно
1012.9 1008.3 0.0
06 25.08 Ю 4 10 км {дождь} 9/6 270 м
[Cb calv As op Ci fib]
+30.9 +22.8 62 +41 +44 опасность
перегрева
1010.0 1005.3 0.0
09 25.08 ЮВ 2 10 км 9/6 300 м
[Cb calv As op Ci fib]
+29.6 +23.2 69 +40 +41 очень
душно
1009.1 1004.4
12 25.08 Ю 2 8000 м 9/6 300 м
[Cb cap As op Ci fib]
+27.0 +23.9 83 +37 +37 очень
душно
1010.6 1005.9 +32.0
15 25.08 штиль 0 2000 м слаб. дождь 10/6
[Cb cap As op Ci fib]
+25.6 +24.5 94 +36 +36 очень
душно
1012.4 1007.7 0.4

 

Местоположение метеостанции Нангапинох (Индонезия): широта -0.35 долгота 111.78 высота над уровнем моря 37 м.

В архиве по умолчанию представлена погода в Нангапинохе за последнюю неделю. Архивные данные за месяц целиком и за предыдущие месяцы, начиная с января 2011 года, Вы можете получить, выбрав интересующий диапазон дат из раскрывающегося списка и нажав кнопку "Ввод!".


*Определитесь, кто Вы:
робот инопланетянин человек

Внимание! Время в таблицах - всемирное. Для получения местного времени необходимо прибавить поправку, которая равна 7 ч.

Смотрите также архив погоды в соседних городах и на ближайших метеорологических станциях:

Погода в Синтанге (Индонезия) (59 км)
Погода на Путусиббау (Индонезия) (185 км)
Погода в Паоанкарая (Индонезия) (257 км)
Погода в Кучинге (Малайзия) (260 км)
Погода в Пангкалан-Буне (Индонезия) (262 км)
Погода в Кетапанге (Индонезия) (262 км)
Погода в Понтианаке (Индонезия) (266 км)
Погода в Сибу (Малайзия) (298 км)
Погода в Муаратевехе (Индонезия) (353 км)
Погода в Парохе (Индонезия) (363 км)

Пояснения к столбцам:

Ветер - указаны скорость ветра в м/с - средняя за 10 мин, порывы в срок и между сроками (в фигурных скобках) и направление, откуда дует ветер: С - северный, СВ - северо-восточный, В - восточный, ЮВ - юго-восточный, Ю - южный, ЮЗ - юго-западный, З - западный, СЗ - северо-западный.
Видимость - горизонтальная дальность видимости в метрах или километрах. При видимости от 1 до 10 км при отсутствии осадков обычно наблюдается дымка, при ухудшении видимости до 1 км и менее - туман. В сухую погоду видимость может ухудшаться дымом, пылью или мглою.
Явления - указаны атмосферные явления, наблюдавшиеся в срок или в последний час перед сроком; фигурными скобками обозначены явления, наблюдавшиеся между сроками (за 1-3 часа до срока); квадратными скобками обозначены град или гололедные отложения с указанием их диаметра в мм.
Облачность - указаны через наклонную черту общая и нижняя облачность в баллах и высота нижней границы облаков в метрах; квадратными скобками обозначены формы облаков: Ci - перистые, Cs - перисто-слоистые, Cc - перисто-кучевые, Ac - высококучевые, As - высокослоистые, Sc - слоисто-кучевые, Ns - слоисто-дождевые, Cu - кучевые, Cb - кучево-дождевые. Подробнее классификацию облаков см. в Атласе облаков (PDF).
T - Температура воздуха - температура, измеренная на высоте 2 м над землей.
Td - Температура точки росы - температура, при понижении до которой содержащийся в воздухе водяной пар достигнет насыщения.
f - Относительная влажность воздуха - влажноcть воздуха, измеренная на высоте 2 м над землей.
Te - Эффективная температура - температура, которую ощущает одетый по сезону человек в тени. Характеристика душности погоды. При расчете учитывается влияние влажности воздуха и скорости ветра на теплоощущения человека.
Tes - Эффективная температура на солнце - температура, которую ощущает человек, с поправкой на солнечный нагрев. Характеристика знойности погоды. Зависит от высоты солнца над горизонтом, облачности и скорости ветра. Ночью, в пасмурную погоду, а также при ветре 12 м/с и более поправка равна нулю.
P - Атмосферное давление - приведенное к уровню моря атмосферное давление.
Po - Атмосферное давление - измеренное на уровне метеостанции атмосферное давление.
Tmin - Минимальная температура - минимум температуры воздуха на высоте 2 м над землей.
Tmax - Максимальная температура - максимум температуры воздуха на высоте 2 м над землей.
R - Количество осадков - Количество выпавших осадков за период времени, мм. При наведении курсора мыши на число - период времени, за который выпало указанное количество осадков.
R24 - Количество осадков - Количество выпавших осадков за 24 часа, мм.
S - Снежный покров - Высота снежного покрова, см. При наведении курсора мыши на число - состояние снежного покрова и степень покрытия местности в баллах.